,,Stat6,,Stat2,,Stat8,,Stat9,,Stat10,,Wind1,,Wind1,
time,status,PA1M_AVG,status,PR1M_SUM,status,RH1M_AVG,status,SR1M_AVG,status,TA1M_AVG,status,W1dAve1m,status,W1sAve1m,
2005-12-11, 00:00:00,VALID,917.107,VALID,0,VALID,100,VALID,-0.0679233,VALID,19.1848,VALID,358,VALID,0.425249,
2005-12-11, 00:01:00,VALID,917.1,VALID,0,VALID,100,VALID,-0.0339617,VALID,19.1816,VALID,353,VALID,0.178234,
2005-12-11, 00:02:00,VALID,917.081,VALID,0,VALID,100,VALID,-0.0339617,VALID,19.1684,VALID,346,VALID,0.747692,
2005-12-11, 00:03:00,VALID,917.048,VALID,0,VALID,100,VALID,-0.0679233,VALID,19.1724,VALID,346,VALID,0.617898,
2005-12-11, 00:04:00,VALID,917.047,VALID,0,VALID,100,VALID,-0.0339617,VALID,19.1585,VALID,325,VALID,0.865699,
2005-12-11, 00:05:00,VALID,917.032,VALID,0,VALID,100,VALID,-0.0169808,VALID,19.1555,VALID,2,VALID,0.528424,
2005-12-11, 00:06:00,VALID,917.025,VALID,0,VALID,100,VALID,-0.0679233,VALID,19.1622,VALID,2,VALID,0.245458,
2005-12-11, 00:07:00,VALID,917.007,VALID,0,VALID,100,VALID,-0.0509425,VALID,19.158,VALID,359,VALID,0.646909,
2005-12-11, 00:08:00,VALID,916.998,VALID,0,VALID,100,VALID,-0.0339617,VALID,19.1518,VALID,356,VALID,0.418069,
2005-12-11, 00:09:00,VALID,916.974,VALID,0,VALID,100,VALID,-0.0339617,VALID,19.1456,VALID,342,VALID,0.760789,
2005-12-11, 00:10:00,VALID,916.962,VALID,0,VALID,100,VALID,0,VALID,19.1259,VALID,7,VALID,0.834985,
2005-12-11, 00:11:00,VALID,916.94,VALID,0,VALID,100,VALID,-0.0509425,VALID,19.152,VALID,10,VALID,0.970238,
2005-12-11, 00:12:00,VALID,916.913,VALID,0,VALID,100,VALID,-0.0339617,VALID,19.1684,VALID,353,VALID,0.698438,
2005-12-11, 00:13:00,VALID,916.885,VALID,0,VALID,100,VALID,-0.0339617,VALID,19.1515,VALID,351,VALID,0.768895,
2005-12-11, 00:14:00,VALID,916.875,VALID,0,VALID,100,VALID,0,VALID,19.1754,VALID,345,VALID,0.583394,
2005-12-11, 00:15:00,VALID,916.868,VALID,0,VALID,100,VALID,-0.0339617,VALID,19.1585,VALID,13,VALID,0.585227,
2005-12-11, 00:16:00,VALID,916.862,VALID,0,VALID,100,VALID,-0.0339617,VALID,19.1557,VALID,341,VALID,1.00074,
2005-12-11, 00:17:00,VALID,916.856,VALID,0,VALID,100,VALID,-0.0339617,VALID,19.1192,VALID,354,VALID,0.906631,
2005-12-11, 00:18:00,VALID,916.859,VALID,0,VALID,100,VALID,-0.0169808,VALID,19.1391,VALID,7,VALID,0.682639,
2005-12-11, 00:19:00,VALID,916.843,VALID,0,VALID,100,VALID,0.0339617,VALID,19.1441,VALID,351,VALID,0.523056,
2005-12-11, 00:20:00,VALID,916.84,VALID,0,VALID,100,VALID,0.0849042,VALID,19.1309,VALID,345,VALID,0.891827,
2005-12-11, 00:21:00,VALID,916.826,VALID,0,VALID,100,VALID,0.0509425,VALID,19.1573,VALID,12,VALID,0.718572,
2005-12-11, 00:22:00,VALID,916.806,VALID,0,VALID,100,VALID,0.0849042,VALID,19.164,VALID,11,VALID,0.231468,
2005-12-11, 00:23:00,VALID,916.788,VALID,0,VALID,100,VALID,0.0849042,VALID,19.1635,VALID,11,VALID,0.277253,
2005-12-11, 00:24:00,VALID,916.775,VALID,0,VALID,100,VALID,0.0849042,VALID,19.1665,VALID,342,VALID,0.724466,
2005-12-11, 00:25:00,VALID,916.747,VALID,0,VALID,100,VALID,0.0509425,VALID,19.1603,VALID,360,VALID,0.71503,
2005-12-11, 00:26:00,VALID,916.724,VALID,0,VALID,100,VALID,0.0509425,VALID,19.1374,VALID,334,VALID,1.08975,
2005-12-11, 00:27:00,VALID,916.705,VALID,0,VALID,100,VALID,0.0679233,VALID,19.1287,VALID,339,VALID,0.777539,
2005-12-11, 00:28:00,VALID,916.685,VALID,0,VALID,100,VALID,0.0339617,VALID,19.118,VALID,22,VALID,0.689631,
2005-12-11, 00:29:00,VALID,916.664,VALID,0,VALID,100,VALID,0.0509425,VALID,19.1344,VALID,24,VALID,0.558689,
2005-12-11, 00:30:00,VALID,916.637,VALID,0,VALID,100,VALID,0.0509425,VALID,19.1312,VALID,351,VALID,0.671148,
2005-12-11, 00:31:00,VALID,916.623,VALID,0,VALID,100,VALID,0.0509425,VALID,19.1153,VALID,333,VALID,0.467076,
2005-12-11, 00:32:00,VALID,916.601,VALID,0,VALID,100,VALID,0.0679233,VALID,19.0956,VALID,322,VALID,0.583097,
2005-12-11, 00:33:00,VALID,916.577,VALID,0,VALID,100,VALID,0.0339617,VALID,19.0668,VALID,307,VALID,0.672053,
2005-12-11, 00:34:00,VALID,916.557,VALID,0,VALID,100,VALID,-0.0339617,VALID,19.0782,VALID,1,VALID,0.703488,
2005-12-11, 00:35:00,VALID,916.54,VALID,0,VALID,100,VALID,-0.0339617,VALID,19.0819,VALID,333,VALID,0.436592,
2005-12-11, 00:36:00,VALID,916.516,VALID,0,VALID,100,VALID,-0.0339617,VALID,19.0611,VALID,317,VALID,0.189317,
2005-12-11, 00:37:00,VALID,916.489,VALID,0,VALID,100,VALID,0,VALID,19.0581,VALID,317,VALID,0.106898,
2005-12-11, 00:38:00,VALID,916.473,VALID,0,VALID,100,VALID,0,VALID,19.062,VALID,337,VALID,0.387463,
2005-12-11, 00:39:00,VALID,916.462,VALID,0,VALID,100,VALID,0,VALID,19.065,VALID,347,VALID,0.0526414,
2005-12-11, 00:40:00,VALID,916.421,VALID,0,VALID,100,VALID,0,VALID,19.0652,VALID,347,VALID,0.207617,
2005-12-11, 00:41:00,VALID,916.417,VALID,0,VALID,100,VALID,-0.0169808,VALID,19.065,VALID,323,VALID,0.43532,
2005-12-11, 00:42:00,VALID,916.393,VALID,0,VALID,100,VALID,-0.0509425,VALID,19.0553,VALID,352,VALID,0.456174,
2005-12-11, 00:43:00,VALID,916.382,VALID,0,VALID,100,VALID,-0.0339617,VALID,19.0623,VALID,13,VALID,0.427083,
2005-12-11, 00:44:00,VALID,916.374,VALID,0,VALID,100,VALID,-0.0339617,VALID,19.0459,VALID,316,VALID,0.201451,
2005-12-11, 00:45:00,VALID,916.357,VALID,0,VALID,100,VALID,-0.0169808,VALID,19.0461,VALID,288,VALID,0.631214,
2005-12-11, 00:46:00,VALID,916.354,VALID,0,VALID,100,VALID,-0.0169808,VALID,19.0269,VALID,299,VALID,0.419671,
2005-12-11, 00:47:00,VALID,916.344,VALID,0,VALID,100,VALID,-0.0169808,VALID,19.0267,VALID,305,VALID,0.0186012,
2005-12-11, 00:48:00,VALID,916.33,VALID,0,VALID,100,VALID,0,VALID,19.0265,VALID,305,VALID,0.0757068,
2005-12-11, 00:49:00,VALID,916.32,VALID,0,VALID,100,VALID,-0.0169808,VALID,19.0265,VALID,305,VALID,0.178163,
2005-12-11, 00:50:00,VALID,916.305,VALID,0,VALID,100,VALID,-0.0169808,VALID,19.0359,VALID,305,VALID,0.0979288,
2005-12-11, 00:51:00,VALID,916.302,VALID,0,VALID,100,VALID,-0.0169808,VALID,19.0362,VALID,305,VALID,0.245536,
2005-12-11, 00:52:00,VALID,916.29,VALID,0,VALID,100,VALID,-0.0169808,VALID,19.0366,VALID,305,VALID,0.222656,
2005-12-11, 00:53:00,VALID,916.277,VALID,0,VALID,100,VALID,-0.0169808,VALID,19.0262,VALID,305,VALID,0.446039,
2005-12-11, 00:54:00,VALID,916.283,VALID,0,VALID,100,VALID,0,VALID,19.0297,VALID,318,VALID,0.508721,
2005-12-11, 00:55:00,VALID,916.264,VALID,0,VALID,100,VALID,0,VALID,19.0101,VALID,326,VALID,0.510653,
2005-12-11, 00:56:00,VALID,916.256,VALID,0,VALID,100,VALID,0,VALID,19.0163,VALID,351,VALID,0.398983,
2005-12-11, 00:57:00,VALID,916.248,VALID,0,VALID,100,VALID,0.0169808,VALID,19.029,VALID,351,VALID,0.196484,
2005-12-11, 00:58:00,VALID,916.25,VALID,0,VALID,100,VALID,0,VALID,19.0292,VALID,351,VALID,0.286156,
2005-12-11, 00:59:00,VALID,916.23,VALID,0,VALID,100,VALID,-0.0169808,VALID,19.0496,VALID,351,VALID,0.107195,
2005-12-11, 01:00:00,VALID,916.228,VALID,0,VALID,100,VALID,-0.0339617,VALID,19.0429,VALID,351,VALID,0.165039,
2005-12-11, 01:01:00,VALID,916.224,VALID,0,VALID,100,VALID,0,VALID,19.0364,VALID,340,VALID,0.217507,
2005-12-11, 01:02:00,VALID,916.241,VALID,0,VALID,100,VALID,0,VALID,19.0163,VALID,308,VALID,0.292111,
2005-12-11, 01:03:00,VALID,916.247,VALID,0,VALID,100,VALID,-0.0169808,VALID,18.9974,VALID,308,VALID,0.273838,
2005-12-11, 01:04:00,VALID,916.254,VALID,0,VALID,100,VALID,-0.0169808,VALID,18.9879,VALID,308,VALID,0.0368823,
2005-12-11, 01:05:00,VALID,916.259,VALID,0,VALID,100,VALID,0,VALID,18.9912,VALID,316,VALID,0.1875,
2005-12-11, 01:06:00,VALID,916.266,VALID,0,VALID,100,VALID,-0.0339617,VALID,18.9616,VALID,342,VALID,0.205859,
2005-12-11, 01:07:00,VALID,916.251,VALID,0,VALID,100,VALID,-0.0169808,VALID,18.9849,VALID,342,VALID,0,
2005-12-11, 01:08:00,VALID,916.262,VALID,0,VALID,100,VALID,-0.0339617,VALID,18.9976,VALID,342,VALID,0.000195313,
2005-12-11, 01:09:00,VALID,916.266,VALID,0,VALID,100,VALID,0,VALID,19.0004,VALID,342,VALID,0.168146,
2005-12-11, 01:10:00,VALID,916.263,VALID,0,VALID,100,VALID,-0.0509425,VALID,19.0068,VALID,343,VALID,0.375347,
2005-12-11, 01:11:00,VALID,916.258,VALID,0,VALID,100,VALID,0,VALID,18.9976,VALID,5,VALID,0.660442,
2005-12-11, 01:12:00,VALID,916.255,VALID,0,VALID,100,VALID,-0.0509425,VALID,18.9849,VALID,16,VALID,0.490141,
2005-12-11, 01:13:00,VALID,916.251,VALID,0,VALID,100,VALID,-0.0849042,VALID,18.972,VALID,15,VALID,0.58559,
2005-12-11, 01:14:00,VALID,916.246,VALID,0,VALID,100,VALID,-0.0339617,VALID,18.9554,VALID,20,VALID,0.595348,
2005-12-11, 01:15:00,VALID,916.245,VALID,0,VALID,100,VALID,0,VALID,18.9427,VALID,18,VALID,0.611536,
2005-12-11, 01:16:00,VALID,916.244,VALID,0,VALID,100,VALID,0,VALID,18.9491,VALID,17,VALID,0.307465,
2005-12-11, 01:17:00,VALID,916.206,VALID,0,VALID,100,VALID,-0.0169808,VALID,18.9263,VALID,15,VALID,0.505664,
2005-12-11, 01:18:00,VALID,916.212,VALID,0,VALID,100,VALID,-0.0169808,VALID,18.9129,VALID,6,VALID,0.333807,
2005-12-11, 01:19:00,VALID,916.206,VALID,0,VALID,100,VALID,0,VALID,18.9164,VALID,343,VALID,0.582031,
2005-12-11, 01:20:00,VALID,916.192,VALID,0,VALID,100,VALID,0,VALID,18.9327,VALID,338,VALID,0.450457,
2005-12-11, 01:21:00,VALID,916.167,VALID,0,VALID,100,VALID,-0.0169808,VALID,18.939,VALID,350,VALID,0.416243,
2005-12-11, 01:22:00,VALID,916.169,VALID,0,VALID,100,VALID,0,VALID,18.9355,VALID,354,VALID,0.555246,
2005-12-11, 01:23:00,VALID,916.164,VALID,0,VALID,100,VALID,0.0169808,VALID,18.9459,VALID,23,VALID,0.590116,
2005-12-11, 01:24:00,VALID,916.151,VALID,0,VALID,100,VALID,-0.0339617,VALID,18.9427,VALID,23,VALID,0.521577,
2005-12-11, 01:25:00,VALID,916.137,VALID,0,VALID,100,VALID,-0.0339617,VALID,18.9588,VALID,16,VALID,0.636624,
2005-12-11, 01:26:00,VALID,916.13,VALID,0,VALID,100,VALID,0,VALID,18.9424,VALID,15,VALID,0.856076,
2005-12-11, 01:27:00,VALID,916.114,VALID,0,VALID,100,VALID,-0.0169808,VALID,18.9231,VALID,11,VALID,1.16202,
2005-12-11, 01:28:00,VALID,916.086,VALID,0,VALID,100,VALID,0,VALID,18.9164,VALID,7,VALID,0.803961,
2005-12-11, 01:29:00,VALID,916.051,VALID,0,VALID,100,VALID,0,VALID,18.9198,VALID,5,VALID,0.859193,
2005-12-11, 01:30:00,VALID,916.031,VALID,0,VALID,100,VALID,0,VALID,18.926,VALID,360,VALID,0.403161,
2005-12-11, 01:31:00,VALID,915.989,VALID,0,VALID,100,VALID,0,VALID,18.9196,VALID,349,VALID,0.800327,
2005-12-11, 01:32:00,VALID,915.956,VALID,0,VALID,100,VALID,0,VALID,18.9166,VALID,353,VALID,0.987109,
2005-12-11, 01:33:00,VALID,915.917,VALID,0,VALID,100,VALID,0,VALID,18.9131,VALID,5,VALID,0.986421,
2005-12-11, 01:34:00,VALID,915.894,VALID,0,VALID,100,VALID,0.0339617,VALID,18.9124,VALID,10,VALID,1.13132,
2005-12-11, 01:35:00,VALID,915.866,VALID,0,VALID,99.9817,VALID,0.0169808,VALID,18.8858,VALID,351,VALID,1.19436,
2005-12-11, 01:36:00,VALID,915.835,VALID,0,VALID,99.9835,VALID,0.0339617,VALID,18.8997,VALID,350,VALID,1.03754,
2005-12-11, 01:37:00,VALID,915.819,VALID,0,VALID,100,VALID,0.0339617,VALID,18.8903,VALID,343,VALID,0.941201,
2005-12-11, 01:38:00,VALID,915.807,VALID,0,VALID,100,VALID,0,VALID,18.9,VALID,338,VALID,0.566992,
2005-12-11, 01:39:00,VALID,915.787,VALID,0,VALID,100,VALID,0,VALID,18.9159,VALID,324,VALID,0.540661,
2005-12-11, 01:40:00,VALID,915.759,VALID,0,VALID,100,VALID,0.0169808,VALID,18.9191,VALID,305,VALID,0.591319,
2005-12-11, 01:41:00,VALID,915.738,VALID,0,VALID,100,VALID,0.0169808,VALID,18.8801,VALID,288,VALID,0.774926,
2005-12-11, 01:42:00,VALID,915.729,VALID,0,VALID,100,VALID,0.0339617,VALID,18.8739,VALID,287,VALID,0.404251,
2005-12-11, 01:43:00,VALID,915.702,VALID,0,VALID,100,VALID,0,VALID,18.8836,VALID,300,VALID,0.781436,
2005-12-11, 01:44:00,VALID,915.691,VALID,0,VALID,100,VALID,0.0169808,VALID,18.854,VALID,302,VALID,0.782452,
2005-12-11, 01:45:00,VALID,915.673,VALID,0,VALID,100,VALID,0.0169808,VALID,18.8801,VALID,311,VALID,0.636814,
2005-12-11, 01:46:00,VALID,915.661,VALID,0,VALID,100,VALID,0.0339617,VALID,18.8803,VALID,311,VALID,0.323946,
2005-12-11, 01:47:00,VALID,915.668,VALID,0,VALID,100,VALID,0.0169808,VALID,18.89,VALID,347,VALID,0.63058,
2005-12-11, 01:48:00,VALID,915.644,VALID,0,VALID,100,VALID,0.0169808,VALID,18.8833,VALID,327,VALID,0.607376,
2005-12-11, 01:49:00,VALID,915.628,VALID,0,VALID,100,VALID,0.0169808,VALID,18.8898,VALID,346,VALID,0.185023,
2005-12-11, 01:50:00,VALID,915.636,VALID,0,VALID,100,VALID,0.0169808,VALID,18.8833,VALID,346,VALID,0.0259811,
2005-12-11, 01:51:00,VALID,915.611,VALID,0,VALID,100,VALID,0.0339617,VALID,18.9034,VALID,328,VALID,0.251529,
2005-12-11, 01:52:00,VALID,915.597,VALID,0,VALID,100,VALID,0,VALID,18.8736,VALID,331,VALID,0.410429,
2005-12-11, 01:53:00,VALID,915.613,VALID,0,VALID,100,VALID,0.0339617,VALID,18.8741,VALID,353,VALID,0.570313,
2005-12-11, 01:54:00,VALID,915.623,VALID,0,VALID,100,VALID,0.0509425,VALID,18.8644,VALID,322,VALID,0.47526,
2005-12-11, 01:55:00,VALID,915.631,VALID,0,VALID,100,VALID,0.0339617,VALID,18.8672,VALID,311,VALID,0.315549,
2005-12-11, 01:56:00,VALID,915.63,VALID,0,VALID,100,VALID,0,VALID,18.8642,VALID,311,VALID,0.142485,
2005-12-11, 01:57:00,VALID,915.624,VALID,0,VALID,100,VALID,0.0339617,VALID,18.8836,VALID,311,VALID,0.0536222,
2005-12-11, 01:58:00,VALID,915.64,VALID,0,VALID,100,VALID,0.0169808,VALID,18.893,VALID,311,VALID,0.0583984,
2005-12-11, 01:59:00,VALID,915.662,VALID,0,VALID,100,VALID,0,VALID,18.896,VALID,311,VALID,0.0154514,
2005-12-11, 02:00:00,VALID,915.664,VALID,0.2,VALID,100,VALID,-0.0169808,VALID,18.8704,VALID,222,VALID,0.514509,
2005-12-11, 02:01:00,VALID,915.669,VALID,0,VALID,100,VALID,0.0169808,VALID,18.8672,VALID,137,VALID,0.137463,
2005-12-11, 02:02:00,VALID,915.652,VALID,0,VALID,100,VALID,0.0509425,VALID,18.8801,VALID,12,VALID,0.465799,
2005-12-11, 02:03:00,VALID,915.645,VALID,0,VALID,100,VALID,0.0169808,VALID,18.8607,VALID,350,VALID,0.779576,
2005-12-11, 02:04:00,VALID,915.647,VALID,0,VALID,99.865,VALID,0.0169808,VALID,18.8607,VALID,334,VALID,0.740767,
2005-12-11, 02:05:00,VALID,915.651,VALID,0,VALID,99.7205,VALID,0.0339617,VALID,18.8965,VALID,331,VALID,0.661337,
2005-12-11, 02:06:00,VALID,915.641,VALID,0,VALID,99.6175,VALID,0,VALID,18.8928,VALID,348,VALID,0.383878,
2005-12-11, 02:07:00,VALID,915.643,VALID,0,VALID,99.5895,VALID,0,VALID,18.9122,VALID,348,VALID,0.483073,
2005-12-11, 02:08:00,VALID,915.65,VALID,0,VALID,99.6518,VALID,0,VALID,18.9325,VALID,348,VALID,0.142624,
2005-12-11, 02:09:00,VALID,915.654,VALID,0,VALID,99.7294,VALID,0.0169808,VALID,18.9251,VALID,311,VALID,0.571221,
2005-12-11, 02:10:00,VALID,915.66,VALID,0,VALID,99.5259,VALID,0.0169808,VALID,18.9089,VALID,310,VALID,0.650484,
2005-12-11, 02:11:00,VALID,915.664,VALID,0,VALID,99.5539,VALID,0.0169808,VALID,18.9385,VALID,334,VALID,0.545922,
2005-12-11, 02:12:00,VALID,915.663,VALID,0,VALID,99.7192,VALID,0,VALID,18.9447,VALID,329,VALID,0.443714,
2005-12-11, 02:13:00,VALID,915.673,VALID,0,VALID,99.984,VALID,0.0169808,VALID,18.9641,VALID,329,VALID,0.400073,
2005-12-11, 02:14:00,VALID,915.664,VALID,0,VALID,100,VALID,0,VALID,18.9611,VALID,331,VALID,0.301235,
2005-12-11, 02:15:00,VALID,915.685,VALID,0,VALID,100,VALID,0,VALID,18.9616,VALID,331,VALID,0.42242,
2005-12-11, 02:16:00,VALID,915.674,VALID,0,VALID,100,VALID,0,VALID,18.9482,VALID,331,VALID,0.29127,
2005-12-11, 02:17:00,VALID,915.662,VALID,0,VALID,100,VALID,0,VALID,18.9579,VALID,331,VALID,0.18843,
2005-12-11, 02:18:00,VALID,915.663,VALID,0,VALID,100,VALID,0,VALID,18.9581,VALID,331,VALID,0.138081,
2005-12-11, 02:19:00,VALID,915.661,VALID,0,VALID,100,VALID,0,VALID,18.9517,VALID,331,VALID,0.159226,
2005-12-11, 02:20:00,VALID,915.652,VALID,0,VALID,100,VALID,0,VALID,18.932,VALID,331,VALID,0.377725,
2005-12-11, 02:21:00,VALID,915.638,VALID,0,VALID,100,VALID,0,VALID,18.8965,VALID,336,VALID,0.504464,
2005-12-11, 02:22:00,VALID,915.635,VALID,0,VALID,100,VALID,0,VALID,18.9032,VALID,349,VALID,0.667468,
2005-12-11, 02:23:00,VALID,915.642,VALID,0,VALID,100,VALID,0.0169808,VALID,18.8962,VALID,335,VALID,0.578852,
2005-12-11, 02:24:00,VALID,915.638,VALID,0,VALID,100,VALID,0.0169808,VALID,18.8607,VALID,342,VALID,0.818004,
2005-12-11, 02:25:00,VALID,915.634,VALID,0,VALID,100,VALID,0.0849042,VALID,18.8612,VALID,345,VALID,0.783008,
2005-12-11, 02:26:00,VALID,915.637,VALID,0,VALID,100,VALID,0,VALID,18.8316,VALID,324,VALID,0.512074,
2005-12-11, 02:27:00,VALID,915.643,VALID,0,VALID,100,VALID,0,VALID,18.8609,VALID,331,VALID,0.313643,
2005-12-11, 02:28:00,VALID,915.635,VALID,0,VALID,100,VALID,0,VALID,18.9,VALID,10,VALID,0.740234,
2005-12-11, 02:29:00,VALID,915.635,VALID,0,VALID,100,VALID,0,VALID,18.8769,VALID,8,VALID,0.590701,
2005-12-11, 02:30:00,VALID,915.633,VALID,0,VALID,100,VALID,0.0169808,VALID,18.884,VALID,338,VALID,0.499092,
2005-12-11, 02:31:00,VALID,915.638,VALID,0,VALID,100,VALID,0,VALID,18.8676,VALID,292,VALID,0.383358,
2005-12-11, 02:32:00,VALID,915.637,VALID,0,VALID,100,VALID,0.0339617,VALID,18.8617,VALID,6,VALID,0.898438,
2005-12-11, 02:33:00,VALID,915.635,VALID,0,VALID,100,VALID,0.0339617,VALID,18.8483,VALID,335,VALID,0.689844,
2005-12-11, 02:34:00,VALID,915.65,VALID,0,VALID,100,VALID,-0.0339617,VALID,18.8654,VALID,324,VALID,0.602726,
2005-12-11, 02:35:00,VALID,915.646,VALID,0,VALID,100,VALID,-0.0169808,VALID,18.8649,VALID,345,VALID,0.826265,
2005-12-11, 02:36:00,VALID,915.654,VALID,0,VALID,100,VALID,-0.0509425,VALID,18.8651,VALID,6,VALID,0.706641,
2005-12-11, 02:37:00,VALID,915.654,VALID,0,VALID,100,VALID,0,VALID,18.8515,VALID,314,VALID,0.648947,
2005-12-11, 02:38:00,VALID,915.646,VALID,0,VALID,100,VALID,-0.0169808,VALID,18.855,VALID,323,VALID,1.10338,
2005-12-11, 02:39:00,VALID,915.653,VALID,0,VALID,100,VALID,-0.0339617,VALID,18.8974,VALID,345,VALID,0.750727,
2005-12-11, 02:40:00,VALID,915.642,VALID,0,VALID,99.9964,VALID,-0.0509425,VALID,18.9203,VALID,329,VALID,0.837209,
2005-12-11, 02:41:00,VALID,915.639,VALID,0,VALID,99.9641,VALID,-0.0679233,VALID,18.9201,VALID,352,VALID,0.980183,
2005-12-11, 02:42:00,VALID,915.646,VALID,0,VALID,99.7892,VALID,-0.0339617,VALID,18.9136,VALID,353,VALID,0.963728,
2005-12-11, 02:43:00,VALID,915.645,VALID,0,VALID,99.7548,VALID,-0.0169808,VALID,18.9171,VALID,353,VALID,0.476563,
2005-12-11, 02:44:00,VALID,915.633,VALID,0,VALID,99.7599,VALID,-0.0509425,VALID,18.924,VALID,334,VALID,0.767401,
2005-12-11, 02:45:00,VALID,915.642,VALID,0,VALID,99.8032,VALID,-0.0169808,VALID,18.894,VALID,333,VALID,0.900534,
2005-12-11, 02:46:00,VALID,915.635,VALID,0,VALID,99.6887,VALID,-0.0169808,VALID,18.9004,VALID,312,VALID,0.693452,
2005-12-11, 02:47:00,VALID,915.637,VALID,0,VALID,99.7358,VALID,0,VALID,18.9263,VALID,303,VALID,0.4871,
2005-12-11, 02:48:00,VALID,915.616,VALID,0,VALID,99.8449,VALID,-0.0339617,VALID,18.9164,VALID,330,VALID,0.742773,
2005-12-11, 02:49:00,VALID,915.596,VALID,0,VALID,99.9224,VALID,0.0849042,VALID,18.9184,VALID,336,VALID,1.07565,
2005-12-11, 02:50:00,VALID,915.544,VALID,0,VALID,99.8451,VALID,0.0849042,VALID,18.9055,VALID,12,VALID,1.06395,
2005-12-11, 02:51:00,VALID,915.527,VALID,0,VALID,99.7765,VALID,0.0849042,VALID,18.9057,VALID,7,VALID,0.846094,
2005-12-11, 02:52:00,VALID,915.529,VALID,0,VALID,99.6137,VALID,0.0679233,VALID,18.9156,VALID,330,VALID,0.853468,
2005-12-11, 02:53:00,VALID,915.506,VALID,0,VALID,99.5183,VALID,0.0509425,VALID,18.9025,VALID,333,VALID,0.750727,
2005-12-11, 02:54:00,VALID,915.493,VALID,0,VALID,99.6607,VALID,0.0849042,VALID,18.9154,VALID,355,VALID,0.606445,
2005-12-11, 02:55:00,VALID,915.484,VALID,0,VALID,99.8985,VALID,0.101885,VALID,18.9221,VALID,345,VALID,0.762195,
2005-12-11, 02:56:00,VALID,915.476,VALID,0,VALID,99.9964,VALID,0.0849042,VALID,18.9117,VALID,339,VALID,0.775112,
2005-12-11, 02:57:00,VALID,915.459,VALID,0,VALID,100,VALID,0.0509425,VALID,18.9092,VALID,343,VALID,0.605378,
2005-12-11, 02:58:00,VALID,915.465,VALID,0,VALID,100,VALID,0.0679233,VALID,18.902,VALID,2,VALID,0.96841,
2005-12-11, 02:59:00,VALID,915.455,VALID,0,VALID,100,VALID,0.101885,VALID,18.9186,VALID,8,VALID,0.559482,
2005-12-11, 03:00:00,VALID,915.473,VALID,0,VALID,100,VALID,0.0849042,VALID,18.9179,VALID,6,VALID,0.141555,
2005-12-11, 03:01:00,VALID,915.484,VALID,0,VALID,100,VALID,0.101885,VALID,18.9348,VALID,6,VALID,0.130394,
2005-12-11, 03:02:00,VALID,915.472,VALID,0,VALID,100,VALID,0.0849042,VALID,18.9345,VALID,10,VALID,0.295945,
2005-12-11, 03:03:00,VALID,915.474,VALID,0,VALID,100,VALID,0.0679233,VALID,18.9251,VALID,356,VALID,0.797917,
2005-12-11, 03:04:00,VALID,915.47,VALID,0,VALID,100,VALID,0.0509425,VALID,18.9059,VALID,326,VALID,0.555414,
2005-12-11, 03:05:00,VALID,915.489,VALID,0,VALID,100,VALID,0.0169808,VALID,18.9124,VALID,326,VALID,0.272294,
2005-12-11, 03:06:00,VALID,915.48,VALID,0,VALID,100,VALID,0.0339617,VALID,18.9064,VALID,326,VALID,0.566134,
2005-12-11, 03:07:00,VALID,915.483,VALID,0,VALID,100,VALID,0.0509425,VALID,18.9025,VALID,356,VALID,0.716264,
2005-12-11, 03:08:00,VALID,915.491,VALID,0,VALID,100,VALID,0.0679233,VALID,18.9189,VALID,9,VALID,0.783118,
2005-12-11, 03:09:00,VALID,915.499,VALID,0,VALID,100,VALID,0.0849042,VALID,18.893,VALID,342,VALID,0.78782,
2005-12-11, 03:10:00,VALID,915.502,VALID,0,VALID,100,VALID,0.0339617,VALID,18.8933,VALID,322,VALID,0.633168,
2005-12-11, 03:11:00,VALID,915.496,VALID,0,VALID,100,VALID,0.0849042,VALID,18.893,VALID,316,VALID,0.460938,
2005-12-11, 03:12:00,VALID,915.488,VALID,0,VALID,100,VALID,0.0849042,VALID,18.9059,VALID,316,VALID,0.204799,
2005-12-11, 03:13:00,VALID,915.468,VALID,0,VALID,100,VALID,0.0509425,VALID,18.9286,VALID,316,VALID,0,
2005-12-11, 03:14:00,VALID,915.464,VALID,0,VALID,100,VALID,0.0339617,VALID,18.9286,VALID,328,VALID,0.265625,
2005-12-11, 03:15:00,VALID,915.467,VALID,0,VALID,100,VALID,0.0509425,VALID,18.9283,VALID,337,VALID,0.426962,
2005-12-11, 03:16:00,VALID,915.463,VALID,0,VALID,100,VALID,0.0849042,VALID,18.9348,VALID,327,VALID,0.44186,
2005-12-11, 03:17:00,VALID,915.465,VALID,0,VALID,99.9512,VALID,0.101885,VALID,18.9412,VALID,285,VALID,0.535429,
2005-12-11, 03:18:00,VALID,915.474,VALID,0,VALID,99.9062,VALID,0.0339617,VALID,18.9706,VALID,267,VALID,0.501116,
2005-12-11, 03:19:00,VALID,915.467,VALID,0,VALID,99.9868,VALID,0.101885,VALID,18.9736,VALID,254,VALID,0.220508,
2005-12-11, 03:20:00,VALID,915.463,VALID,0,VALID,100,VALID,0.0849042,VALID,18.9641,VALID,254,VALID,0.0356889,
2005-12-11, 03:21:00,VALID,915.471,VALID,0,VALID,100,VALID,0.0509425,VALID,18.9738,VALID,282,VALID,0.214844,
2005-12-11, 03:22:00,VALID,915.465,VALID,0,VALID,100,VALID,0.0509425,VALID,18.9867,VALID,292,VALID,0.108232,
2005-12-11, 03:23:00,VALID,915.462,VALID,0,VALID,100,VALID,0.0339617,VALID,18.9733,VALID,292,VALID,0.204033,
2005-12-11, 03:24:00,VALID,915.447,VALID,0,VALID,100,VALID,0.0509425,VALID,18.9641,VALID,292,VALID,0.125601,
2005-12-11, 03:25:00,VALID,915.442,VALID,0,VALID,100,VALID,0.0849042,VALID,18.9768,VALID,292,VALID,0.0430596,
2005-12-11, 03:26:00,VALID,915.445,VALID,0,VALID,100,VALID,0.0509425,VALID,18.9766,VALID,292,VALID,0.0196265,
2005-12-11, 03:27:00,VALID,915.454,VALID,0,VALID,100,VALID,0.0509425,VALID,18.9927,VALID,292,VALID,0,
2005-12-11, 03:28:00,VALID,915.458,VALID,0,VALID,100,VALID,0.0339617,VALID,18.9803,VALID,292,VALID,0,
2005-12-11, 03:29:00,VALID,915.456,VALID,0,VALID,100,VALID,0.0509425,VALID,18.9736,VALID,291,VALID,0,
2005-12-11, 03:30:00,VALID,915.438,VALID,0,VALID,100,VALID,0.101885,VALID,18.9766,VALID,292,VALID,0,
2005-12-11, 03:31:00,VALID,915.426,VALID,0,VALID,100,VALID,0.0339617,VALID,18.977,VALID,292,VALID,0,
2005-12-11, 03:32:00,VALID,915.435,VALID,0,VALID,100,VALID,0.0679233,VALID,18.9959,VALID,292,VALID,0,
2005-12-11, 03:33:00,VALID,915.419,VALID,0,VALID,100,VALID,0.0169808,VALID,18.9992,VALID,292,VALID,0,
2005-12-11, 03:34:00,VALID,915.412,VALID,0,VALID,100,VALID,-0.0169808,VALID,18.9835,VALID,292,VALID,0,
2005-12-11, 03:35:00,VALID,915.418,VALID,0,VALID,100,VALID,0,VALID,18.9867,VALID,318,VALID,0.229469,
2005-12-11, 03:36:00,VALID,915.411,VALID,0,VALID,100,VALID,0,VALID,18.9994,VALID,323,VALID,0.000726744,
2005-12-11, 03:37:00,VALID,915.41,VALID,0,VALID,100,VALID,0.0169808,VALID,19.022,VALID,331,VALID,0.0379724,
2005-12-11, 03:38:00,VALID,915.411,VALID,0,VALID,100,VALID,0.0339617,VALID,19.032,VALID,331,VALID,0,
2005-12-11, 03:39:00,VALID,915.415,VALID,0,VALID,100,VALID,0.0169808,VALID,19.0089,VALID,319,VALID,0.111702,
2005-12-11, 03:40:00,VALID,915.393,VALID,0,VALID,100,VALID,0,VALID,18.9835,VALID,242,VALID,0.707386,
2005-12-11, 03:41:00,VALID,915.386,VALID,0,VALID,100,VALID,0.0339617,VALID,18.993,VALID,261,VALID,0.55692,